Voltar ao catálogo

SL-16 DEB

AtivoLEO
NORAD 22221·DEBRIS·🇷🇺 Russia

Lançado Nov 17, 1992 de Baikonur Cosmodrome

Loading…

Próximas Passagens (próximas 24 horas)

TLE

AtualizadoSource: Space-Track

Época: Sep 14, 2026, 10:27 UTC

1 22221U 92076C   26257.43601531  .00000013  00000-0  49294-4 0  9994
2 22221  71.0436  56.1827 0182877   9.5300  19.8091 13.77708016699531

Acompanhe SL-16 DEB em tempo real com AllMySat

Download on the App Store